When you browse on this site, cookies collect data to enhance your experience and personalize the content and advertising you see.
Visit our Privacy Policy to learn more. By continuing to use the site, you agree to this use of cookies and data.
  • In Hungary
  • List of Countries
  • For 7 days
  • Water Temperature
  • Weather Map
  • News
  • Weather Widgets
  • user-avatar
    Login

    Hourly Weather Salihovo

    Today, 15 October, Tuesday

    Time Temperature Precipitation Wind Pressure Humidity
    00:00 +6°C° 0.1 mm 4 mps 746 mmHg 88%
    01:00 +6°C° 0.1 mm 4 mps 746 mmHg 89%
    02:00 +6°C° 0 mm 4 mps 746 mmHg 90%
    03:00 +5°C° 0 mm 3 mps 746 mmHg 91%
    04:00 +5°C° 0 mm 3 mps 746 mmHg 93%
    05:00 +5°C° 0.4 mm 3 mps 745 mmHg 93%
    06:00 +5°C° 0.4 mm 3 mps 745 mmHg 94%
    07:00 +5°C° 0.4 mm 3 mps 745 mmHg 94%
    08:00 +6°C° 1.5 mm 4 mps 744 mmHg 93%
    09:00 +6°C° 1.5 mm 5 mps 743 mmHg 92%
    10:00 +6°C° 0 mm 7 mps 742 mmHg 92%
    11:00 +8°C° 2 mm 6 mps 741 mmHg 93%
    12:00 +8°C° 2 mm 6 mps 740 mmHg 95%
    13:00 +9°C° 2 mm 5 mps 739 mmHg 96%
    14:00 +10°C° 0.6 mm 5 mps 739 mmHg 94%
    15:00 +11°C° 0.6 mm 6 mps 739 mmHg 93%
    16:00 +11°C° 0.6 mm 6 mps 739 mmHg 91%
    17:00 +11°C° 1.4 mm 6 mps 739 mmHg 91%
    18:00 +10°C° 1.4 mm 5 mps 739 mmHg 91%
    19:00 +9°C° 1.4 mm 5 mps 740 mmHg 91%
    20:00 +9°C° 0.1 mm 5 mps 740 mmHg 91%
    21:00 +8°C° 0.1 mm 5 mps 741 mmHg 90%
    22:00 +7°C° 0.1 mm 5 mps 742 mmHg 89%
    23:00 +6°C° 0.1 mm 5 mps 742 mmHg 89%

    Tomorrow, 16 October, Wednesday

    Time Temperature Precipitation Wind Pressure Humidity
    00:00 +6°C° 0.1 mm 5 mps 743 mmHg 88%
    01:00 +6°C° 0.1 mm 5 mps 743 mmHg 87%
    02:00 +5°C° 0.1 mm 4 mps 744 mmHg 87%
    03:00 +5°C° 0.1 mm 4 mps 745 mmHg 87%
    04:00 +4°C° 0.1 mm 3 mps 746 mmHg 87%
    05:00 +4°C° 0.1 mm 4 mps 746 mmHg 86%
    06:00 +2°C° 0.1 mm 5 mps 746 mmHg 86%
    07:00 +2°C° 0.1 mm 5 mps 747 mmHg 86%
    08:00 +2°C° 0.1 mm 5 mps 747 mmHg 87%
    09:00 +2°C° 0.1 mm 5 mps 748 mmHg 88%
    10:00 +2°C° 0.1 mm 5 mps 748 mmHg 89%
    11:00 +2°C° 0.1 mm 5 mps 749 mmHg 84%
    12:00 +2°C° 0.1 mm 6 mps 749 mmHg 79%
    13:00 +2°C° 0.1 mm 6 mps 750 mmHg 74%
    14:00 +2°C° 0 mm 6 mps 750 mmHg 74%
    15:00 +2°C° 0 mm 6 mps 751 mmHg 73%
    16:00 +2°C° 0 mm 6 mps 752 mmHg 72%
    17:00 +2°C° 0 mm 5 mps 752 mmHg 73%
    18:00 +1°C° 0 mm 5 mps 753 mmHg 73%
    19:00 +1°C° 0 mm 5 mps 753 mmHg 74%
    20:00 0°C° 0 mm 5 mps 754 mmHg 75%
    21:00 0°C° 0 mm 4 mps 754 mmHg 77%
    22:00 0°C° 0 mm 4 mps 754 mmHg 79%
    23:00 -1°C° 0 mm 4 mps 755 mmHg 80%

    Day after tomorrow, 17 October, Thursday

    Time Temperature Precipitation Wind Pressure Humidity
    00:00 0°C° 0 mm 3 mps 755 mmHg 82%
    01:00 0°C° 0 mm 3 mps 755 mmHg 84%
    02:00 -1°C° 0 mm 2 mps 756 mmHg 84%
    03:00 -1°C° 0 mm 2 mps 756 mmHg 84%
    04:00 -1°C° 0 mm 2 mps 756 mmHg 84%
    05:00 -1°C° 0 mm 2 mps 757 mmHg 83%
    06:00 +1°C° 0 mm 1 mps 757 mmHg 83%
    07:00 +1°C° 0 mm 1 mps 757 mmHg 83%
    08:00 +2°C° 0 mm 1 mps 757 mmHg 79%
    09:00 +3°C° 0 mm 1 mps 757 mmHg 75%
    10:00 +2°C° 0 mm 2 mps 757 mmHg 71%
    11:00 +3°C° 0 mm 2 mps 757 mmHg 70%
    12:00 +3°C° 0 mm 2 mps 757 mmHg 68%
    13:00 +4°C° 0 mm 2 mps 756 mmHg 66%
    14:00 +3°C° 0 mm 3 mps 756 mmHg 68%
    15:00 +3°C° 0 mm 3 mps 756 mmHg 70%
    16:00 +3°C° 0 mm 3 mps 756 mmHg 71%
    17:00 +3°C° 0.5 mm 4 mps 755 mmHg 76%
    18:00 +3°C° 0.5 mm 4 mps 755 mmHg 80%
    19:00 +1°C° 0.5 mm 5 mps 754 mmHg 85%
    20:00 +2°C° 0 mm 5 mps 754 mmHg 82%
    21:00 +2°C° 0 mm 6 mps 753 mmHg 78%
    22:00 +2°C° 0 mm 6 mps 753 mmHg 75%
    23:00 +2°C° 0 mm 6 mps 752 mmHg 74%

    18 October, Friday

    Time Temperature Precipitation Wind Pressure Humidity
    00:00 +3°C° 0 mm 6 mps 751 mmHg 73%
    01:00 +3°C° 0 mm 6 mps 751 mmHg 72%
    02:00 +2°C° 0 mm 6 mps 750 mmHg 72%
    03:00 +2°C° 0 mm 6 mps 750 mmHg 71%
    04:00 +2°C° 0 mm 6 mps 750 mmHg 71%
    05:00 +2°C° 0 mm 6 mps 749 mmHg 71%
    06:00 +2°C° 0 mm 6 mps 749 mmHg 72%
    07:00 +2°C° 0 mm 6 mps 748 mmHg 72%
    08:00 +2°C° 0.2 mm 5 mps 748 mmHg 72%
    09:00 +3°C° 0.2 mm 5 mps 748 mmHg 72%
    10:00 +4°C° 0.2 mm 4 mps 748 mmHg 73%
    11:00 +4°C° 0.7 mm 4 mps 748 mmHg 77%
    12:00 +4°C° 0.7 mm 3 mps 748 mmHg 81%
    13:00 +5°C° 0.7 mm 2 mps 748 mmHg 86%
    14:00 +5°C° 1 mm 2 mps 748 mmHg 89%
    15:00 +6°C° 1 mm 1 mps 748 mmHg 92%
    16:00 +6°C° 1 mm 1 mps 748 mmHg 95%
    17:00 +5°C° 0.7 mm 2 mps 748 mmHg 95%
    18:00 +5°C° 0.7 mm 2 mps 748 mmHg 95%
    19:00 +3°C° 0.7 mm 3 mps 748 mmHg 95%
    20:00 +3°C° 0.3 mm 3 mps 749 mmHg 92%
    21:00 +3°C° 0.3 mm 3 mps 749 mmHg 90%
    22:00 +3°C° 0.3 mm 3 mps 750 mmHg 88%
    23:00 +2°C° 0 mm 3 mps 750 mmHg 89%

    19 October, Saturday

    Time Temperature Precipitation Wind Pressure Humidity
    00:00 +2°C° 0 mm 3 mps 750 mmHg 89%
    01:00 +1°C° 0 mm 3 mps 750 mmHg 89%
    02:00 +1°C° 0 mm 3 mps 751 mmHg 87%
    03:00 -1°C° 0 mm 4 mps 752 mmHg 85%
    04:00 -1°C° 0 mm 4 mps 752 mmHg 82%
    05:00 -1°C° 0 mm 4 mps 753 mmHg 81%
    06:00 -2°C° 0 mm 4 mps 753 mmHg 80%
    07:00 -1°C° 0 mm 3 mps 753 mmHg 79%
    08:00 -1°C° 0 mm 4 mps 754 mmHg 75%
    09:00 0°C° 0 mm 4 mps 754 mmHg 71%
    10:00 +1°C° 0 mm 4 mps 755 mmHg 66%
    11:00 +1°C° 0 mm 4 mps 755 mmHg 65%
    12:00 +3°C° 0 mm 4 mps 755 mmHg 63%
    13:00 +4°C° 0 mm 4 mps 756 mmHg 62%
    14:00 +3°C° 0 mm 4 mps 756 mmHg 64%
    15:00 +3°C° 0 mm 4 mps 756 mmHg 65%
    16:00 +3°C° 0 mm 3 mps 756 mmHg 67%
    17:00 +2°C° 0 mm 3 mps 756 mmHg 70%
    18:00 +1°C° 0 mm 3 mps 757 mmHg 74%
    19:00 0°C° 0 mm 3 mps 757 mmHg 77%
    20:00 -1°C° 0 mm 3 mps 757 mmHg 77%
    21:00 -1°C° 0 mm 3 mps 757 mmHg 77%
    22:00 -1°C° 0 mm 3 mps 758 mmHg 76%
    23:00 -1°C° 0 mm 3 mps 758 mmHg 76%

    20 October, Sunday

    Time Temperature Precipitation Wind Pressure Humidity
    00:00 -1°C° 0 mm 3 mps 758 mmHg 75%
    01:00 -1°C° 0 mm 2 mps 758 mmHg 74%
    02:00 -1°C° 0 mm 2 mps 758 mmHg 74%
    03:00 -1°C° 0 mm 2 mps 758 mmHg 74%
    04:00 -1°C° 0 mm 2 mps 758 mmHg 74%
    05:00 -1°C° 0 mm 2 mps 758 mmHg 74%
    06:00 -1°C° 0 mm 2 mps 758 mmHg 74%
    07:00 -1°C° 0 mm 2 mps 758 mmHg 74%
    08:00 -1°C° 0 mm 2 mps 758 mmHg 71%
    09:00 +1°C° 0 mm 2 mps 759 mmHg 68%
    10:00 +2°C° 0 mm 2 mps 759 mmHg 65%
    11:00 +2°C° 0 mm 2 mps 759 mmHg 64%
    12:00 +3°C° 0 mm 2 mps 759 mmHg 62%
    13:00 +5°C° 0 mm 1 mps 759 mmHg 60%
    14:00 +5°C° 0 mm 1 mps 758 mmHg 66%
    15:00 +4°C° 0 mm 1 mps 758 mmHg 72%
    16:00 +4°C° 0 mm 1 mps 758 mmHg 77%
    17:00 +3°C° 0 mm 1 mps 758 mmHg 80%
    18:00 +3°C° 0 mm 1 mps 759 mmHg 83%
    19:00 +1°C° 0 mm 0 mps 759 mmHg 86%
    20:00 +1°C° 0 mm 0 mps 759 mmHg 85%
    21:00 +1°C° 0 mm 0 mps 759 mmHg 85%
    22:00 +1°C° 0 mm 0 mps 759 mmHg 85%
    23:00 +1°C° 0 mm 0 mps 759 mmHg 85%
    Show more